This demonstration page uses our WeatherBlox Daily Observations layout. Learn more.

Left ArrowRight Arrow

39.12711, -84.51439

Hourly Observations for August 2, 2021

Temp ( °F °C ) Dew Point ( °F °C ) Humidity (%) Winds ( mph kmh ) Pressure ( in mb ) Visibility ( mi km ) Precip ( " mm )
12:53 am 00:53 Clear 59 15 56 13.3 90 90 N N/A 30.06 1018 8 13 N/A
1:53 am 01:53 Clear 59 15 57 13.9 93 93 N N/A 30.06 1018 8 13 N/A
2:53 am 02:53 Clear 57 13.9 55 12.8 93 93 N N/A 30.07 1018 7 11 N/A
3:53 am 03:53 Clear with Mist and Fog 57 13.9 56 13.3 96 96 N N/A 30.08 1019 6 10 N/A
4:53 am 04:53 Clear with Mist and Fog 57 13.9 56 13.3 96 96 N N/A 30.09 1019 5 8 N/A
5:18 am 05:18 Clear with Mist and Fog 56 13.3 55 12.8 97 97 N N/A 30.10 1019 2 2 N/A
5:27 am 05:27 Clear with Mist and Fog 56 13.3 55 12.8 97 97 N N/A 30.10 1019 1 1 N/A
5:31 am 05:31 Clear with Mist and Fog 56 13.3 55 12.8 97 97 N N/A 30.10 1019 2 3 N/A
5:40 am 05:40 Clear with Mist and Fog 56 13.3 56 13.3 100 100 N N/A 30.10 1019 4 6 N/A
5:53 am 05:53 Clear with Mist and Fog 55 12.8 55 12.8 100 100 N N/A 30.10 1019 4 6 N/A
6:13 am 06:13 Clear with Mist and Fog 55 12.8 54 12.2 96 96 N N/A 30.11 1020 2 2 N/A
6:25 am 06:25 Clear with Mist and Fog 56 13.3 55 12.8 97 97 N N/A 30.11 1020 3 5 N/A
6:36 am 06:36 Clear with Mist and Fog 54 12.2 54 12.2 100 100 N N/A 30.11 1020 1 2 N/A
6:53 am 06:53 Sunny with Mist and Fog 55 12.8 54 12.2 96 96 N N/A 30.11 1020 6 10 N/A
7:53 am 07:53 Sunny 58 14.4 57 13.9 97 97 N N/A 30.12 1020 8 13 N/A
8:53 am 08:53 Sunny 64 17.8 57 13.9 78 78 NE 3 6 30.13 1020 8 13 N/A
9:53 am 09:53 Sunny 67 19.4 58 14.4 73 73 ENE 8 13 30.14 1021 10 16 N/A
10:53 am 10:53 Sunny 72 22.2 60 15.6 66 66 NNE 7 11 30.14 1021 10 16 N/A
11:53 am 11:53 Mostly Sunny 74 23.3 60 15.6 62 62 NNE 8 13 30.13 1020 10 16 N/A
12:53 pm 12:53 Mostly Cloudy 77 25 59 15 54 54 NE 8 13 30.12 1020 10 16 N/A
1:53 pm 13:53 Mostly Cloudy 77 25 57 13.9 50 50 N N/A 30.11 1020 10 16 N/A
2:53 pm 14:53 Sunny 79 26.1 58 14.4 49 49 ENE 9 15 30.10 1019 10 16 N/A
3:53 pm 15:53 Sunny 79 26.1 58 14.4 49 49 NE 3 6 30.08 1019 10 16 N/A
4:53 pm 16:53 Partly Cloudy 79 26.1 55 12.8 44 44 NE 6 9 30.07 1018 10 16 N/A
5:53 pm 17:53 Partly Cloudy 78 25.6 56 13.3 47 47 ENE 8 13 30.06 1018 10 16 N/A
6:53 pm 18:53 Partly Cloudy 77 25 55 12.8 47 47 ENE 9 15 30.06 1018 10 16 N/A
7:53 pm 19:53 Mostly Sunny 75 23.9 56 13.3 52 52 ENE 7 11 30.06 1018 10 16 N/A
8:53 pm 20:53 Clear 68 20 59 15 73 73 ENE 3 6 30.06 1018 10 16 N/A
9:53 pm 21:53 Clear 64 17.8 59 15 84 84 N N/A 30.08 1019 10 16 N/A
10:53 pm 22:53 Clear 63 17.2 59 15 87 87 N N/A 30.10 1019 10 16 N/A
11:53 pm 23:53 Clear 61 16.1 59 15 93 93 N N/A 30.09 1019 10 16 N/A

Powered by AerisWeather